EW0139 Weather Reports


Display with metric or nautical units.
time (UTC)temp
F
wind
direction
speed
MPH
gust
MPH
rain 1hr
in
rain 24hr
in
rain mn
in
humidity
%
barometer
mb
20260906170742 74 341 6.0 6.0 0.00 0.00 0.00 69 1013.0
20260906165253 74 278 1.0 5.0 0.00 0.00 0.00 69 1013.6
20260906163742 74 279 3.0 6.0 0.00 0.00 0.00 69 1013.7
20260906162255 74 315 10.0 10.0 0.00 0.00 0.00 69 1013.1
20260906160743 74 331 0.0 5.0 0.00 0.00 0.00 70 1013.5
20260906155313 74 329 1.0 7.0 0.00 0.00 0.00 69 1013.4
20260906153741 74 39 1.0 6.0 0.00 0.00 0.00 68 1013.4
20260906152249 72 30 6.0 6.0 0.00 0.00 0.00 71 1013.1
20260906150742 70 323 2.0 7.0 0.00 0.00 0.00 74 1013.3
20260906145251 69 327 6.0 11.0 0.00 0.00 0.00 75 1013.7
20260906143743 68 316 7.0 10.0 0.00 0.00 0.00 77 1014.0
20260906142251 67 297 5.0 12.0 0.00 0.00 0.00 78 1014.1
20260906140758 66 295 6.0 12.0 0.00 0.00 0.00 79 1014.2
20260906135249 65 279 6.0 11.0 0.00 0.00 0.00 80 1014.1
20260906133759 65 274 7.0 11.0 0.00 0.00 0.00 81 1014.2
20260906132251 65 276 9.0 10.0 0.00 0.00 0.00 81 1014.1
20260906130740 65 262 2.0 6.0 0.00 0.00 0.00 81 1014.0
20260906125309 65 223 4.0 8.0 0.00 0.00 0.00 82 1014.0
20260906123740 64 196 3.0 7.0 0.00 0.00 0.00 81 1013.9
20260906122308 66 338 0.0 5.0 0.00 0.00 0.00 79 1013.3
20260906120740 67 351 2.0 6.0 0.00 0.00 0.00 79 1012.7
20260906115307 67 168 0.0 6.0 0.00 0.00 0.00 79 1013.6
20260906113813 67 315 1.0 5.0 0.00 0.00 0.00 78 1013.3
20260906112248 68 274 1.0 5.0 0.00 0.00 0.00 77 1013.6
20260906110755 68 53 3.0 13.0 0.00 0.00 0.00 77 1012.4
20260906105249 68 17 4.0 18.0 0.00 0.00 0.00 76 1011.9
20260906103759 68 41 6.0 9.0 0.00 0.00 0.00 76 1014.2
20260906102248 68 320 3.0 9.0 0.00 0.00 0.00 76 1014.6
20260906100740 68 2 6.0 20.0 0.00 0.00 0.00 76 1014.1
20260906095250 67 357 6.0 12.0 0.00 0.00 0.00 75 1014.2
20260906093743 66 317 3.0 8.0 0.00 0.00 0.00 74 1015.2
20260906092253 66 290 9.0 14.0 0.00 0.00 0.00 75 1015.5
20260906090746 66 290 12.0 16.0 0.00 0.00 0.00 74 1015.4
20260906085253 68 246 8.0 16.0 0.00 0.00 0.00 73 1015.6
20260906083741 68 278 6.0 6.0 0.00 0.00 0.00 76 1014.6
20260906082252 67 17 2.0 5.0 0.00 0.00 0.00 76 1014.2
20260906080741 68 20 0.0 4.0 0.00 0.00 0.00 75 1014.1
20260906075309 68 32 3.0 7.0 0.00 0.00 0.00 75 1013.7
20260906073801 68 2 2.0 5.0 0.00 0.00 0.00 74 1013.7
20260906072248 69 21 4.0 5.0 0.00 0.00 0.00 73 1013.9
20260906070742 69 357 3.0 9.0 0.00 0.00 0.00 73 1014.1
20260906065250 69 21 0.0 7.0 0.00 0.00 0.00 72 1013.9
20260906063742 69 18 4.0 5.0 0.00 0.00 0.00 71 1013.8
20260906062251 69 354 4.0 7.0 0.00 0.00 0.00 70 1013.9
20260906060740 69 40 1.0 6.0 0.00 0.00 0.00 70 1014.1
20260906055254 70 23 1.0 5.0 0.00 0.00 0.00 70 1014.3
20260906053743 70 4 1.0 5.0 0.00 0.00 0.00 69 1014.4
20260906052256 70 358 1.0 5.0 0.00 0.00 0.00 68 1014.6
20260906050744 70 16 2.0 6.0 0.00 0.00 0.00 67 1014.8
20260906045300 71 9 5.0 8.0 0.00 0.00 0.00 67 1014.8
20260906043749 71 11 7.0 9.0 0.00 0.00 0.00 66 1014.7
20260906042255 71 356 5.0 13.0 0.00 0.00 0.00 65 1014.8
20260906040745 71 354 2.0 12.0 0.00 0.00 0.00 64 1014.8
20260906035254 71 13 9.0 11.0 0.00 0.00 0.00 63 1015.0
20260906033746 71 347 4.0 13.0 0.00 0.00 0.00 63 1015.1
20260906032255 71 350 3.0 10.0 0.00 0.00 0.00 62 1015.1
20260906030759 72 317 4.0 12.0 0.00 0.00 0.00 61 1015.0
20260906025249 72 347 4.0 9.0 0.00 0.00 0.00 60 1014.7
20260906023752 72 340 2.0 9.0 0.00 0.00 0.00 59 1014.6
20260906022306 73 335 6.0 13.0 0.00 0.00 0.00 57 1014.2
20260906020749 74 358 2.0 7.0 0.00 0.00 0.00 55 1014.1
20260906015315 75 331 3.0 10.0 0.00 0.00 0.00 54 1013.8
20260906013742 76 322 8.0 16.0 0.00 0.00 0.00 52 1013.8
20260906012248 78 307 12.0 15.0 0.00 0.00 0.00 50 1013.5
20260906010753 79 312 11.0 21.0 0.00 0.00 0.00 49 1013.4
20260906005244 80 323 15.0 18.0 0.00 0.00 0.00 48 1013.3
20260906003750 81 287 11.0 21.0 0.00 0.00 0.00 47 1013.1
20260906002300 81 294 17.0 23.0 0.00 0.00 0.00 47 1013.0
20260906000744 82 320 12.0 22.0 0.00 0.00 0.00 46 1012.9
20260905235237 84 321 8.0 17.0 0.00 0.00 0.00 45 1012.7
20260905233742 84 320 6.0 11.0 0.00 0.00 0.00 45 1012.8
20260905232251 83 292 6.0 15.0 0.00 0.00 0.00 45 1012.8
20260905230741 84 354 3.0 12.0 0.00 0.00 0.00 44 1012.7
20260905225245 84 321 6.0 13.0 0.00 0.00 0.00 45 1012.8
20260905223754 84 316 7.0 18.0 0.00 0.00 0.00 44 1012.8
20260905222243 83 292 16.0 21.0 0.00 0.00 0.00 45 1012.8
20260905220749 83 304 10.0 18.0 0.00 0.00 0.00 44 1012.8
20260905215258 82 298 8.0 16.0 0.00 0.00 0.00 45 1012.8
20260905213741 83 289 12.0 19.0 0.00 0.00 0.00 45 1012.9
20260905212251 82 301 7.0 15.0 0.00 0.00 0.00 45 1013.0
20260905210759 82 319 10.0 16.0 0.00 0.00 0.00 46 1013.1
20260905205242 83 332 5.0 17.0 0.00 0.00 0.00 45 1013.1
20260905203749 81 310 7.0 15.0 0.00 0.00 0.00 47 1013.1
20260905202300 81 288 16.0 26.0 0.00 0.00 0.00 47 1013.2
20260905200808 80 292 15.0 18.0 0.00 0.00 0.00 47 1013.1
20260905195255 80 320 14.0 19.0 0.00 0.00 0.00 47 1013.2
20260905193801 79 288 15.0 22.0 0.00 0.00 0.00 48 1013.2
20260905192250 79 288 14.0 22.0 0.00 0.00 0.00 47 1013.6
20260905190819 78 288 14.0 25.0 0.00 0.00 0.00 48 1013.5
20260905185241 78 279 14.0 21.0 0.00 0.00 0.00 49 1013.6
20260905183752 79 306 17.0 22.0 0.00 0.00 0.00 48 1013.6
20260905182256 78 296 19.0 24.0 0.00 0.00 0.00 49 1013.6
20260905180742 77 289 12.0 21.0 0.00 0.00 0.00 49 1013.5
20260905175250 76 281 11.0 21.0 0.00 0.00 0.00 51 1013.6
20260905173819 75 306 13.0 18.0 0.00 0.00 0.00 53 1013.4
20260905172248 75 293 17.0 22.0 0.00 0.00 0.00 53 1013.4